date,time,SUV Intensity [MED/Hr],UV Index,Daily total [MED],Since Last [MED]
04/06/2022,00:08:51,0.001,0.0,0.0,0.0
04/06/2022,00:10:51,0.001,0.0,0.0,0.0
04/06/2022,00:12:51,0.000,0.0,0.0,0.0
04/06/2022,00:14:51,-0.001,0.0,0.0,0.0
04/06/2022,00:16:51,-0.000,0.0,0.0,0.0
04/06/2022,00:18:51,-0.001,0.0,0.0,0.0
04/06/2022,00:20:51,0.000,0.0,0.0,0.0
04/06/2022,00:22:51,0.000,0.0,0.0,0.0
04/06/2022,00:24:51,0.001,0.0,0.0,0.0
04/06/2022,00:26:51,0.000,0.0,0.0,0.0
04/06/2022,00:28:51,0.000,0.0,0.0,0.0
04/06/2022,00:30:51,0.000,0.0,0.0,0.0
04/06/2022,00:32:51,0.001,0.0,0.0,0.0
04/06/2022,00:34:50,0.001,0.0,0.0,0.0
04/06/2022,00:36:51,0.000,0.0,0.0,0.0
04/06/2022,00:38:51,0.001,0.0,0.0,0.0
04/06/2022,00:40:51,0.000,0.0,0.0,0.0
04/06/2022,00:42:51,0.001,0.0,0.0,0.0
04/06/2022,00:44:51,-0.001,0.0,0.0,0.0
04/06/2022,00:46:51,0.000,0.0,0.0,0.0
04/06/2022,00:48:52,0.000,0.0,0.0,0.0
04/06/2022,00:50:51,-0.000,0.0,0.0,0.0
04/06/2022,00:52:51,0.001,0.0,0.0,0.0
04/06/2022,00:54:51,0.001,0.0,0.0,0.0
04/06/2022,00:56:51,0.001,0.0,0.0,0.0
04/06/2022,00:58:51,0.000,0.0,0.0,0.0
04/06/2022,01:00:51,-0.000,0.0,0.0,0.0
04/06/2022,01:02:51,0.000,0.0,0.0,0.0
04/06/2022,01:04:58,0.001,0.0,0.0,0.0
04/06/2022,01:06:51,0.000,0.0,0.0,0.0
04/06/2022,01:08:51,0.001,0.0,0.0,0.0
04/06/2022,01:10:51,0.001,0.0,0.0,0.0
04/06/2022,01:12:51,0.000,0.0,0.0,0.0
04/06/2022,01:14:59,0.001,0.0,0.0,0.0
04/06/2022,01:16:51,0.001,0.0,0.0,0.0
04/06/2022,01:18:51,0.001,0.0,0.0,0.0
04/06/2022,01:20:52,0.000,0.0,0.0,0.0
04/06/2022,01:22:51,0.001,0.0,0.0,0.0
04/06/2022,01:25:51,0.001,0.0,0.0,0.0
04/06/2022,01:27:51,0.001,0.0,0.0,0.0
04/06/2022,01:30:00,0.001,0.0,0.0,0.0
04/06/2022,01:32:00,0.001,0.0,0.0,0.0
04/06/2022,01:33:51,0.002,0.0,0.0,0.0
04/06/2022,01:35:51,0.001,0.0,0.0,0.0
04/06/2022,01:37:51,0.001,0.0,0.0,0.0
04/06/2022,01:39:51,0.002,0.0,0.0,0.0
04/06/2022,01:41:51,0.001,0.0,0.0,0.0
04/06/2022,01:43:51,0.001,0.0,0.0,0.0
04/06/2022,01:46:00,0.002,0.0,0.0,0.0
04/06/2022,01:47:51,0.001,0.0,0.0,0.0
04/06/2022,01:49:52,0.001,0.0,0.0,0.0
04/06/2022,01:51:51,0.001,0.0,0.0,0.0
04/06/2022,01:53:51,0.001,0.0,0.0,0.0
04/06/2022,01:55:52,0.001,0.0,0.0,0.0
04/06/2022,01:57:59,0.001,0.0,0.0,0.0
04/06/2022,01:59:51,0.001,0.0,0.0,0.0
04/06/2022,02:01:51,0.001,0.0,0.0,0.0
04/06/2022,02:03:51,0.000,0.0,0.0,0.0
04/06/2022,02:05:51,0.001,0.0,0.0,0.0
04/06/2022,02:08:00,0.001,0.0,0.0,0.0
04/06/2022,02:09:52,0.002,0.0,0.0,0.0
04/06/2022,02:11:51,0.002,0.0,0.0,0.0
04/06/2022,02:14:00,0.001,0.0,0.0,0.0
04/06/2022,02:15:51,0.001,0.0,0.0,0.0
04/06/2022,02:17:51,0.001,0.0,0.0,0.0
04/06/2022,02:19:52,0.001,0.0,0.0,0.0
04/06/2022,02:21:51,0.002,0.0,0.0,0.0
04/06/2022,02:23:51,0.001,0.0,0.0,0.0
04/06/2022,02:25:51,0.000,0.0,0.0,0.0
04/06/2022,02:27:51,0.002,0.0,0.0,0.0
04/06/2022,02:29:51,0.001,0.0,0.0,0.0
04/06/2022,02:31:52,0.001,0.0,0.0,0.0
04/06/2022,02:33:51,0.001,0.0,0.0,0.0
04/06/2022,02:35:51,0.002,0.0,0.0,0.0
04/06/2022,02:37:51,0.001,0.0,0.0,0.0
04/06/2022,02:39:51,0.001,0.0,0.0,0.0
04/06/2022,02:42:00,0.001,0.0,0.0,0.0
04/06/2022,02:43:52,0.001,0.0,0.0,0.0
04/06/2022,02:45:51,0.001,0.0,0.0,0.0
04/06/2022,02:47:52,0.001,0.0,0.0,0.0
04/06/2022,02:49:51,0.001,0.0,0.0,0.0
04/06/2022,02:51:59,0.001,0.0,0.0,0.0
04/06/2022,02:54:06,0.001,0.0,0.0,0.0
04/06/2022,02:55:51,0.001,0.0,0.0,0.0
04/06/2022,02:57:52,0.001,0.0,0.0,0.0
04/06/2022,02:59:51,0.001,0.0,0.0,0.0
04/06/2022,03:01:51,0.002,0.0,0.0,0.0
04/06/2022,03:03:59,0.001,0.0,0.0,0.0
04/06/2022,03:05:51,0.002,0.0,0.0,0.0
04/06/2022,03:07:51,0.001,0.0,0.0,0.0
04/06/2022,03:09:52,0.002,0.0,0.0,0.0
04/06/2022,03:11:51,0.001,0.0,0.0,0.0
04/06/2022,03:14:00,0.001,0.0,0.0,0.0
04/06/2022,03:15:51,0.001,0.0,0.0,0.0
04/06/2022,03:17:51,0.001,0.0,0.0,0.0
04/06/2022,03:19:59,0.002,0.0,0.0,0.0
04/06/2022,03:21:51,0.001,0.0,0.0,0.0
04/06/2022,03:23:51,0.002,0.0,0.0,0.0
04/06/2022,03:25:52,0.001,0.0,0.0,0.0
04/06/2022,03:27:51,0.001,0.0,0.0,0.0
04/06/2022,03:30:00,0.002,0.0,0.0,0.0
04/06/2022,03:31:51,0.001,0.0,0.0,0.0
04/06/2022,03:33:51,0.002,0.0,0.0,0.0
04/06/2022,03:35:51,0.002,0.0,0.0,0.0
04/06/2022,03:37:52,0.001,0.0,0.0,0.0
04/06/2022,03:39:51,0.001,0.0,0.0,0.0
04/06/2022,03:41:51,0.002,0.0,0.0,0.0
04/06/2022,03:43:51,0.002,0.0,0.0,0.0
04/06/2022,03:45:51,0.001,0.0,0.0,0.0
04/06/2022,03:48:00,0.002,0.0,0.0,0.0
04/06/2022,03:49:52,0.001,0.0,0.0,0.0
04/06/2022,03:51:52,0.002,0.0,0.0,0.0
04/06/2022,03:53:51,0.002,0.0,0.0,0.0
04/06/2022,03:55:51,0.002,0.0,0.0,0.0
04/06/2022,03:58:01,0.002,0.0,0.0,0.0
04/06/2022,03:59:51,0.002,0.0,0.0,0.0
04/06/2022,04:01:51,0.002,0.0,0.0,0.0
04/06/2022,04:03:51,0.002,0.0,0.0,0.0
04/06/2022,04:05:52,0.002,0.0,0.0,0.0
04/06/2022,04:07:51,0.003,0.0,0.0,0.0
04/06/2022,04:09:51,0.002,0.0,0.0,0.0
04/06/2022,04:11:52,0.003,0.0,0.0,0.0
04/06/2022,04:14:00,0.003,0.0,0.0,0.0
04/06/2022,04:15:51,0.002,0.0,0.0,0.0
04/06/2022,04:17:52,0.002,0.0,0.0,0.0
04/06/2022,04:19:51,0.003,0.0,0.0,0.0
04/06/2022,04:21:51,0.003,0.0,0.0,0.0
04/06/2022,04:23:52,0.003,0.0,0.0,0.0
04/06/2022,04:25:52,0.003,0.0,0.0,0.0
04/06/2022,04:27:52,0.003,0.0,0.0,0.0
04/06/2022,04:29:51,0.003,0.0,0.0,0.0
04/06/2022,04:31:51,0.004,0.0,0.0,0.0
04/06/2022,04:33:51,0.004,0.0,0.0,0.0
04/06/2022,04:36:00,0.004,0.0,0.0,0.0
04/06/2022,04:37:52,0.005,0.0,0.0,0.0
04/06/2022,04:39:51,0.006,0.0,0.0,0.0
04/06/2022,04:41:51,0.005,0.0,0.0,0.0
04/06/2022,04:43:51,0.007,0.0,0.0,0.0
04/06/2022,04:46:00,0.006,0.0,0.0,0.0
04/06/2022,04:47:51,0.007,0.0,0.0,0.0
04/06/2022,04:49:51,0.007,0.0,0.001,0.001
04/06/2022,04:51:59,0.007,0.0,0.001,0.0
04/06/2022,04:53:51,0.008,0.0,0.001,0.0
04/06/2022,04:55:52,0.008,0.0,0.001,0.0
04/06/2022,04:57:51,0.007,0.0,0.002,0.001
04/06/2022,04:59:52,0.009,0.0,0.002,0.0
04/06/2022,05:01:52,0.010,0.0,0.002,0.0
04/06/2022,05:03:52,0.011,0.0,0.003,0.001
04/06/2022,05:05:52,0.012,0.0,0.003,0.0
04/06/2022,05:07:51,0.013,0.0,0.003,0.0
04/06/2022,05:09:52,0.015,0.0,0.004,0.001
04/06/2022,05:11:51,0.014,0.0,0.004,0.0
04/06/2022,05:13:51,0.015,0.0,0.005,0.001
04/06/2022,05:15:51,0.015,0.0,0.005,0.0
04/06/2022,05:17:52,0.016,0.0,0.006,0.001
04/06/2022,05:19:52,0.016,0.0,0.006,0.0
04/06/2022,05:21:51,0.019,0.0,0.007,0.001
04/06/2022,05:24:00,0.020,0.0,0.008,0.001
04/06/2022,05:26:06,0.022,0.0,0.008,0.0
04/06/2022,05:28:52,0.025,0.0,0.01,0.002
04/06/2022,05:30:51,0.028,0.0,0.01,0.0
04/06/2022,05:32:51,0.030,0.0,0.011,0.001
04/06/2022,05:34:52,0.033,0.0,0.012,0.001
04/06/2022,05:36:52,0.034,0.0,0.014,0.002
04/06/2022,05:38:51,0.033,0.0,0.015,0.001
04/06/2022,05:40:51,0.032,0.0,0.016,0.001
04/06/2022,05:42:51,0.030,0.0,0.017,0.001
04/06/2022,05:44:52,0.030,0.0,0.018,0.001
04/06/2022,05:46:52,0.030,0.0,0.019,0.001
04/06/2022,05:48:52,0.030,0.0,0.02,0.001
04/06/2022,05:50:51,0.031,0.0,0.021,0.001
04/06/2022,05:52:52,0.033,0.0,0.022,0.001
04/06/2022,05:54:52,0.033,0.0,0.023,0.001
04/06/2022,05:56:52,0.038,0.0,0.024,0.001
04/06/2022,05:58:51,0.042,0.0,0.026,0.002
04/06/2022,06:00:51,0.044,0.0,0.027,0.001
04/06/2022,06:02:52,0.046,0.0,0.028,0.001
04/06/2022,06:04:52,0.048,0.0,0.03,0.002
04/06/2022,06:06:52,0.052,0.0,0.032,0.002
04/06/2022,06:08:51,0.055,0.0,0.033,0.001
04/06/2022,06:10:52,0.057,0.0,0.035,0.002
04/06/2022,06:12:51,0.053,0.0,0.037,0.002
04/06/2022,06:14:54,0.053,0.0,0.039,0.002
04/06/2022,06:16:51,0.052,0.0,0.041,0.002
04/06/2022,06:18:51,0.049,0.0,0.042,0.001
04/06/2022,06:20:52,0.049,0.0,0.044,0.002
04/06/2022,06:22:52,0.051,0.0,0.046,0.002
04/06/2022,06:24:59,0.052,0.0,0.048,0.002
04/06/2022,06:26:38,0.053,0.0,0.049,0.001
04/06/2022,06:28:53,0.056,0.0,0.051,0.002
04/06/2022,06:30:52,0.057,0.0,0.053,0.002
04/06/2022,06:32:52,0.056,0.0,0.055,0.002
04/06/2022,06:34:51,0.056,0.0,0.057,0.002
04/06/2022,06:36:52,0.057,0.0,0.059,0.002
04/06/2022,06:38:51,0.057,0.0,0.06,0.001
04/06/2022,06:40:52,0.058,0.0,0.062,0.002
04/06/2022,06:42:52,0.061,0.0,0.064,0.002
04/06/2022,06:44:52,0.067,0.0,0.066,0.002
04/06/2022,06:46:52,0.073,0.0,0.069,0.003
04/06/2022,06:48:51,0.078,0.0,0.071,0.002
04/06/2022,06:50:52,0.082,0.0,0.074,0.003
04/06/2022,06:52:52,0.083,0.0,0.077,0.003
04/06/2022,06:54:52,0.084,0.0,0.079,0.002
04/06/2022,06:56:52,0.099,0.0,0.083,0.004
04/06/2022,06:58:51,0.107,0.0,0.086,0.003
04/06/2022,07:00:52,0.111,0.0,0.09,0.004
04/06/2022,07:03:00,0.118,0.0,0.094,0.004
04/06/2022,07:04:51,0.119,0.0,0.097,0.003
04/06/2022,07:06:51,0.131,0.0,0.102,0.005
04/06/2022,07:08:51,0.142,0.0,0.106,0.004
04/06/2022,07:10:52,0.150,0.0,0.111,0.005
04/06/2022,07:13:00,0.160,0.0,0.116,0.005
04/06/2022,07:14:52,0.170,0.0,0.122,0.006
04/06/2022,07:16:52,0.191,0.0,0.128,0.006
04/06/2022,07:18:51,0.204,0.0,0.134,0.006
04/06/2022,07:20:51,0.209,0.0,0.141,0.007
04/06/2022,07:23:00,0.207,0.0,0.149,0.008
04/06/2022,07:24:51,0.207,0.0,0.155,0.006
04/06/2022,07:26:51,0.204,0.0,0.162,0.007
04/06/2022,07:29:00,0.193,0.0,0.169,0.007
04/06/2022,07:30:52,0.190,0.0,0.175,0.006
04/06/2022,07:32:52,0.198,0.0,0.181,0.006
04/06/2022,07:34:52,0.214,0.0,0.188,0.007
04/06/2022,07:36:52,0.213,0.0,0.195,0.007
04/06/2022,07:38:51,0.203,0.0,0.202,0.007
04/06/2022,07:40:51,0.196,0.0,0.209,0.007
04/06/2022,07:42:52,0.197,0.0,0.216,0.007
04/06/2022,07:44:52,0.206,0.0,0.222,0.006
04/06/2022,07:46:52,0.224,1.0,0.229,0.007
04/06/2022,07:48:52,0.249,1.0,0.237,0.008
04/06/2022,07:50:52,0.261,1.0,0.246,0.009
04/06/2022,07:52:52,0.246,1.0,0.254,0.008
04/06/2022,07:54:52,0.217,0.0,0.262,0.008
04/06/2022,07:56:52,0.191,0.0,0.269,0.007
04/06/2022,07:58:52,0.181,0.0,0.275,0.006
04/06/2022,08:00:51,0.194,0.0,0.281,0.006
04/06/2022,08:02:52,0.225,1.0,0.288,0.007
04/06/2022,08:04:52,0.247,1.0,0.296,0.008
04/06/2022,08:06:52,0.240,1.0,0.304,0.008
04/06/2022,08:08:52,0.223,1.0,0.312,0.008
04/06/2022,08:10:51,0.204,0.0,0.319,0.007
04/06/2022,08:12:52,0.194,0.0,0.326,0.007
04/06/2022,08:14:52,0.190,0.0,0.332,0.006
04/06/2022,08:17:00,0.188,0.0,0.339,0.007
04/06/2022,08:18:51,0.195,0.0,0.345,0.006
04/06/2022,08:20:52,0.191,0.0,0.351,0.006
04/06/2022,08:22:52,0.180,0.0,0.357,0.006
04/06/2022,08:24:51,0.170,0.0,0.363,0.006
04/06/2022,08:27:00,0.156,0.0,0.369,0.006
04/06/2022,08:28:52,0.143,0.0,0.374,0.005
04/06/2022,08:30:52,0.139,0.0,0.378,0.004
04/06/2022,08:32:52,0.148,0.0,0.383,0.005
04/06/2022,08:34:52,0.167,0.0,0.388,0.005
04/06/2022,08:36:52,0.183,0.0,0.394,0.006
04/06/2022,08:38:51,0.199,0.0,0.401,0.007
04/06/2022,08:40:52,0.219,1.0,0.407,0.006
04/06/2022,08:42:52,0.231,1.0,0.415,0.008
04/06/2022,08:44:52,0.236,1.0,0.423,0.008
04/06/2022,08:46:52,0.257,1.0,0.431,0.008
04/06/2022,08:48:52,0.279,1.0,0.44,0.009
04/06/2022,08:50:51,0.284,1.0,0.449,0.009
04/06/2022,08:52:52,0.282,1.0,0.459,0.01
04/06/2022,08:54:52,0.273,1.0,0.468,0.009
04/06/2022,08:56:52,0.280,1.0,0.477,0.009
04/06/2022,08:58:52,0.311,1.0,0.487,0.01
04/06/2022,09:00:51,0.359,1.0,0.498,0.011
04/06/2022,09:02:52,0.398,1.0,0.511,0.013
04/06/2022,09:04:52,0.445,1.0,0.525,0.014
04/06/2022,09:06:52,0.504,1.0,0.541,0.016
04/06/2022,09:08:52,0.532,1.0,0.558,0.017
04/06/2022,09:10:52,0.503,1.0,0.575,0.017
04/06/2022,09:12:52,0.448,1.0,0.591,0.016
04/06/2022,09:14:52,0.415,1.0,0.606,0.015
04/06/2022,09:16:52,0.419,1.0,0.619,0.013
04/06/2022,09:18:52,0.463,1.0,0.634,0.015
04/06/2022,09:20:52,0.539,1.0,0.651,0.017
04/06/2022,09:22:52,0.609,1.0,0.67,0.019
04/06/2022,09:24:52,0.631,1.0,0.691,0.021
04/06/2022,09:26:52,0.637,1.0,0.712,0.021
04/06/2022,09:28:52,0.671,2.0,0.734,0.022
04/06/2022,09:30:52,0.723,2.0,0.757,0.023
04/06/2022,09:32:52,0.775,2.0,0.782,0.025
04/06/2022,09:34:51,0.798,2.0,0.808,0.026
04/06/2022,09:36:52,0.755,2.0,0.834,0.026
04/06/2022,09:38:51,0.675,2.0,0.858,0.024
04/06/2022,09:40:51,0.604,1.0,0.879,0.021
04/06/2022,09:42:52,0.545,1.0,0.898,0.019
04/06/2022,09:44:52,0.535,1.0,0.916,0.018
04/06/2022,09:46:52,0.585,1.0,0.935,0.019
04/06/2022,09:48:52,0.625,1.0,0.955,0.02
04/06/2022,09:50:52,0.621,1.0,0.976,0.021
04/06/2022,09:52:52,0.596,1.0,0.996,0.02
04/06/2022,09:54:52,0.589,1.0,1.016,0.02
04/06/2022,09:56:52,0.591,1.0,1.035,0.019
04/06/2022,09:58:51,0.573,1.0,1.055,0.02
04/06/2022,10:00:52,0.531,1.0,1.073,0.018
04/06/2022,10:02:52,0.515,1.0,1.091,0.018
04/06/2022,10:04:52,0.542,1.0,1.108,0.017
04/06/2022,10:06:52,0.622,1.0,1.128,0.02
04/06/2022,10:08:52,0.717,2.0,1.15,0.022
04/06/2022,10:10:52,0.776,2.0,1.175,0.025
04/06/2022,10:13:01,0.800,2.0,1.203,0.028
04/06/2022,10:14:52,0.877,2.0,1.229,0.026
04/06/2022,10:16:52,0.974,2.0,1.26,0.031
04/06/2022,10:18:52,0.963,2.0,1.292,0.032
04/06/2022,10:20:52,0.891,2.0,1.323,0.031
04/06/2022,10:23:02,0.767,2.0,1.353,0.03
04/06/2022,10:25:04,0.635,1.0,1.377,0.024
04/06/2022,10:26:52,0.545,1.0,1.395,0.018
04/06/2022,10:28:59,0.504,1.0,1.413,0.018
04/06/2022,10:30:52,0.498,1.0,1.429,0.016
04/06/2022,10:33:01,0.474,1.0,1.446,0.017
04/06/2022,10:34:52,0.441,1.0,1.46,0.014
04/06/2022,10:36:52,0.395,1.0,1.474,0.014
04/06/2022,10:38:55,0.332,1.0,1.487,0.013
04/06/2022,10:40:52,0.284,1.0,1.497,0.01
04/06/2022,10:42:52,0.280,1.0,1.506,0.009
04/06/2022,10:44:52,0.288,1.0,1.515,0.009
04/06/2022,10:46:51,0.284,1.0,1.525,0.01
04/06/2022,10:49:01,0.282,1.0,1.535,0.01
04/06/2022,10:50:52,0.290,1.0,1.544,0.009
04/06/2022,10:52:52,0.300,1.0,1.554,0.01
04/06/2022,10:54:52,0.304,1.0,1.564,0.01
04/06/2022,10:56:52,0.296,1.0,1.574,0.01
04/06/2022,10:58:52,0.288,1.0,1.583,0.009
04/06/2022,11:00:52,0.269,1.0,1.593,0.01
04/06/2022,11:02:52,0.240,1.0,1.601,0.008
04/06/2022,11:04:52,0.212,0.0,1.609,0.008
04/06/2022,11:06:52,0.198,0.0,1.616,0.007
04/06/2022,11:08:52,0.202,0.0,1.622,0.006
04/06/2022,11:10:52,0.205,0.0,1.629,0.007
04/06/2022,11:12:50,0.209,0.0,1.636,0.007
04/06/2022,11:14:52,0.219,1.0,1.643,0.007
04/06/2022,11:17:01,0.215,0.0,1.651,0.008
04/06/2022,11:18:52,0.212,0.0,1.657,0.006
04/06/2022,11:20:53,0.231,1.0,1.665,0.008
04/06/2022,11:22:53,0.285,1.0,1.673,0.008
04/06/2022,11:24:52,0.368,1.0,1.684,0.011
04/06/2022,11:26:52,0.474,1.0,1.698,0.014
04/06/2022,11:28:52,0.583,1.0,1.716,0.018
04/06/2022,11:30:52,0.654,2.0,1.737,0.021
04/06/2022,11:32:52,0.753,2.0,1.76,0.023
04/06/2022,11:34:52,0.885,2.0,1.787,0.027
04/06/2022,11:37:00,0.918,2.0,1.82,0.033
04/06/2022,11:38:52,0.915,2.0,1.848,0.028
04/06/2022,11:40:52,0.932,2.0,1.879,0.031
04/06/2022,11:42:52,0.991,2.0,1.911,0.032
04/06/2022,11:44:52,1.053,2.0,1.945,0.034
04/06/2022,11:46:52,1.044,2.0,1.98,0.035
04/06/2022,11:48:52,0.953,2.0,2.014,0.034
04/06/2022,11:50:52,0.891,2.0,2.044,0.03
04/06/2022,11:53:00,0.978,2.0,2.077,0.033
04/06/2022,11:54:52,1.201,3.0,2.11,0.033
04/06/2022,11:56:53,1.283,3.0,2.152,0.042
04/06/2022,11:58:52,1.407,3.0,2.196,0.044
04/06/2022,12:00:52,2.108,5.0,2.255,0.059
04/06/2022,12:03:01,1.757,4.0,2.325,0.07
04/06/2022,12:04:52,2.251,5.0,2.386,0.061
04/06/2022,12:06:52,2.545,6.0,2.462,0.076
04/06/2022,12:09:01,2.535,6.0,2.546,0.084
04/06/2022,12:10:51,1.781,4.0,2.619,0.073
04/06/2022,12:12:52,2.463,6.0,2.696,0.077
04/06/2022,12:14:53,2.404,6.0,2.777,0.081
04/06/2022,12:16:52,2.366,5.0,2.857,0.08
04/06/2022,12:19:00,2.407,6.0,2.942,0.085
04/06/2022,12:21:01,2.374,5.0,3.022,0.08
04/06/2022,12:22:52,2.431,6.0,3.095,0.073
04/06/2022,12:24:52,2.443,6.0,3.176,0.081
04/06/2022,12:26:52,1.985,5.0,3.255,0.079
04/06/2022,12:28:52,2.157,5.0,3.332,0.077
04/06/2022,12:31:01,1.939,4.0,3.411,0.079
04/06/2022,12:32:52,2.428,6.0,3.483,0.072
04/06/2022,12:34:52,1.854,4.0,3.563,0.08
04/06/2022,12:36:52,1.988,5.0,3.641,0.078
04/06/2022,12:38:52,2.403,6.0,3.72,0.079
04/06/2022,12:41:01,2.513,6.0,3.806,0.086
04/06/2022,12:42:52,2.095,5.0,3.879,0.073
04/06/2022,12:44:52,2.285,5.0,3.949,0.07
04/06/2022,12:46:52,1.558,4.0,4.01,0.061
04/06/2022,12:48:52,2.014,5.0,4.071,0.061
04/06/2022,12:50:52,1.820,4.0,4.135,0.064
04/06/2022,12:52:52,1.507,3.0,4.189,0.054
04/06/2022,12:54:52,1.475,3.0,4.239,0.05
04/06/2022,12:56:52,1.338,3.0,4.285,0.046
04/06/2022,12:59:01,1.298,3.0,4.332,0.047
04/06/2022,13:00:52,1.319,3.0,4.372,0.04
04/06/2022,13:02:52,1.488,3.0,4.419,0.047
04/06/2022,13:04:52,1.553,4.0,4.469,0.05
04/06/2022,13:06:52,1.459,3.0,4.524,0.055
04/06/2022,13:09:01,1.291,3.0,4.572,0.048
04/06/2022,13:10:52,1.266,3.0,4.612,0.04
04/06/2022,13:12:52,1.161,3.0,4.653,0.041
04/06/2022,13:14:52,1.135,3.0,4.691,0.038
04/06/2022,13:16:52,1.156,3.0,4.729,0.038
04/06/2022,13:18:52,1.195,3.0,4.768,0.039
04/06/2022,13:20:53,1.272,3.0,4.809,0.041
04/06/2022,13:22:52,1.307,3.0,4.851,0.042
04/06/2022,13:24:53,1.510,3.0,4.898,0.047
04/06/2022,13:26:53,1.499,3.0,4.947,0.049
04/06/2022,13:28:53,1.505,3.0,5.0,0.053
04/06/2022,13:30:53,1.441,3.0,5.051,0.051
04/06/2022,13:32:52,1.489,3.0,5.1,0.049
04/06/2022,13:34:53,1.590,4.0,5.151,0.051
04/06/2022,13:36:52,2.166,5.0,5.218,0.067
04/06/2022,13:38:52,1.425,3.0,5.276,0.058
04/06/2022,13:40:52,1.316,3.0,5.321,0.045
04/06/2022,13:42:52,1.276,3.0,5.364,0.043
04/06/2022,13:44:52,1.321,3.0,5.408,0.044
04/06/2022,13:46:53,1.383,3.0,5.452,0.044
04/06/2022,13:48:52,1.498,3.0,5.498,0.046
04/06/2022,13:50:52,1.416,3.0,5.548,0.05
04/06/2022,13:52:53,1.501,3.0,5.596,0.048
04/06/2022,13:54:52,1.588,4.0,5.657,0.061
04/06/2022,13:56:52,1.324,3.0,5.707,0.05
04/06/2022,13:58:52,1.312,3.0,5.75,0.043
04/06/2022,14:00:53,1.500,3.0,5.799,0.049
04/06/2022,14:02:52,1.427,3.0,5.85,0.051
04/06/2022,14:04:53,1.250,3.0,5.894,0.044
04/06/2022,14:06:52,1.314,3.0,5.936,0.042
04/06/2022,14:08:52,1.427,3.0,5.98,0.044
04/06/2022,14:10:53,1.722,4.0,6.035,0.055
04/06/2022,14:12:52,1.877,4.0,6.094,0.059
04/06/2022,14:14:52,1.801,4.0,6.153,0.059
04/06/2022,14:16:52,1.637,4.0,6.21,0.057
04/06/2022,14:18:53,1.303,3.0,6.255,0.045
04/06/2022,14:20:52,1.365,3.0,6.299,0.044
04/06/2022,14:22:52,1.702,4.0,6.352,0.053
04/06/2022,14:24:53,1.652,4.0,6.409,0.057
04/06/2022,14:26:52,1.716,4.0,6.466,0.057
04/06/2022,14:28:52,1.389,3.0,6.521,0.055
04/06/2022,14:30:52,1.459,3.0,6.577,0.056
04/06/2022,14:32:53,1.472,3.0,6.627,0.05
04/06/2022,14:34:52,1.690,4.0,6.681,0.054
04/06/2022,14:36:53,1.701,4.0,6.734,0.053
04/06/2022,14:38:52,1.722,4.0,6.791,0.057
04/06/2022,14:40:52,1.703,4.0,6.848,0.057
04/06/2022,14:42:52,1.541,4.0,6.903,0.055
04/06/2022,14:44:52,1.648,4.0,6.955,0.052
04/06/2022,14:46:52,1.143,3.0,6.999,0.044
04/06/2022,14:48:52,1.013,2.0,7.034,0.035
04/06/2022,14:51:01,0.955,2.0,7.069,0.035
04/06/2022,14:52:52,0.970,2.0,7.099,0.03
04/06/2022,14:54:52,0.940,2.0,7.131,0.032
04/06/2022,14:56:53,0.916,2.0,7.162,0.031
04/06/2022,14:58:52,0.917,2.0,7.194,0.032
04/06/2022,15:00:52,0.891,2.0,7.224,0.03
04/06/2022,15:02:52,0.852,2.0,7.254,0.03
04/06/2022,15:04:53,0.847,2.0,7.282,0.028
04/06/2022,15:06:53,0.840,2.0,7.311,0.029
04/06/2022,15:09:00,0.831,2.0,7.34,0.029
04/06/2022,15:10:53,0.841,2.0,7.366,0.026
04/06/2022,15:12:52,0.875,2.0,7.396,0.03
04/06/2022,15:14:55,0.923,2.0,7.427,0.031
04/06/2022,15:16:53,1.126,3.0,7.461,0.034
04/06/2022,15:18:53,1.078,2.0,7.496,0.035
04/06/2022,15:20:53,0.951,2.0,7.534,0.038
04/06/2022,15:22:52,1.186,3.0,7.57,0.036
04/06/2022,15:24:53,1.179,3.0,7.61,0.04
04/06/2022,15:26:52,1.168,3.0,7.648,0.038
04/06/2022,15:28:53,1.151,3.0,7.686,0.038
04/06/2022,15:30:52,1.139,3.0,7.724,0.038
04/06/2022,15:32:53,1.122,3.0,7.762,0.038
04/06/2022,15:34:52,1.114,3.0,7.799,0.037
04/06/2022,15:36:52,1.087,2.0,7.836,0.037
04/06/2022,15:38:52,1.063,2.0,7.872,0.036
04/06/2022,15:40:53,1.036,2.0,7.907,0.035
04/06/2022,15:42:52,1.014,2.0,7.941,0.034
04/06/2022,15:44:53,0.991,2.0,7.974,0.033
04/06/2022,15:46:53,0.908,2.0,8.007,0.033
04/06/2022,15:48:52,0.943,2.0,8.038,0.031
04/06/2022,15:50:52,0.933,2.0,8.069,0.031
04/06/2022,15:52:53,0.924,2.0,8.1,0.031
04/06/2022,15:54:52,0.906,2.0,8.131,0.031
04/06/2022,15:56:53,0.888,2.0,8.161,0.03
04/06/2022,15:58:52,0.870,2.0,8.19,0.029
04/06/2022,16:00:53,0.859,2.0,8.219,0.029
04/06/2022,16:03:00,0.846,2.0,8.249,0.03
04/06/2022,16:04:53,0.838,2.0,8.275,0.026
04/06/2022,16:06:53,0.825,2.0,8.303,0.028
04/06/2022,16:08:52,0.796,2.0,8.33,0.027
04/06/2022,16:10:52,0.777,2.0,8.355,0.025
04/06/2022,16:12:54,0.758,2.0,8.38,0.025
04/06/2022,16:15:01,0.713,2.0,8.406,0.026
04/06/2022,16:16:52,0.549,1.0,8.426,0.02
04/06/2022,16:18:52,0.525,1.0,8.444,0.018
04/06/2022,16:20:52,0.433,1.0,8.459,0.015
04/06/2022,16:22:52,0.404,1.0,8.473,0.014
04/06/2022,16:24:53,0.389,1.0,8.486,0.013
04/06/2022,16:26:52,0.386,1.0,8.499,0.013
04/06/2022,16:28:52,0.392,1.0,8.512,0.013
04/06/2022,16:30:52,0.406,1.0,8.526,0.014
04/06/2022,16:32:52,0.421,1.0,8.539,0.013
04/06/2022,16:34:52,0.491,1.0,8.554,0.015
04/06/2022,16:36:53,0.476,1.0,8.569,0.015
04/06/2022,16:38:53,0.419,1.0,8.585,0.016
04/06/2022,16:40:53,0.362,1.0,8.597,0.012
04/06/2022,16:42:53,0.339,1.0,8.609,0.012
04/06/2022,16:45:18,0.412,1.0,8.623,0.014
04/06/2022,16:47:53,0.340,1.0,8.639,0.016
04/06/2022,16:49:52,0.357,1.0,8.651,0.012
04/06/2022,16:51:52,0.382,1.0,8.664,0.013
04/06/2022,16:54:02,0.452,1.0,8.68,0.016
04/06/2022,16:55:53,0.448,1.0,8.693,0.013
04/06/2022,16:57:53,0.439,1.0,8.708,0.015
04/06/2022,16:59:53,0.429,1.0,8.722,0.014
04/06/2022,17:01:53,0.416,1.0,8.737,0.015
04/06/2022,17:03:56,0.405,1.0,8.751,0.014
04/06/2022,17:05:53,0.397,1.0,8.764,0.013
04/06/2022,17:07:52,0.384,1.0,8.777,0.013
04/06/2022,17:09:53,0.373,1.0,8.789,0.012
04/06/2022,17:12:01,0.360,1.0,8.802,0.013
04/06/2022,17:13:53,0.352,1.0,8.813,0.011
04/06/2022,17:15:53,0.342,1.0,8.825,0.012
04/06/2022,17:17:53,0.338,1.0,8.836,0.011
04/06/2022,17:19:53,0.329,1.0,8.847,0.011
04/06/2022,17:21:53,0.320,1.0,8.858,0.011
04/06/2022,17:23:53,0.310,1.0,8.869,0.011
04/06/2022,17:25:53,0.299,1.0,8.879,0.01
04/06/2022,17:27:53,0.293,1.0,8.889,0.01
04/06/2022,17:30:01,0.277,1.0,8.899,0.01
04/06/2022,17:31:53,0.264,1.0,8.907,0.008
04/06/2022,17:33:53,0.255,1.0,8.916,0.009
04/06/2022,17:35:52,0.252,1.0,8.924,0.008
04/06/2022,17:37:53,0.248,1.0,8.933,0.009
04/06/2022,17:39:53,0.248,1.0,8.941,0.008
04/06/2022,17:42:01,0.251,1.0,8.95,0.009
04/06/2022,17:43:53,0.245,1.0,8.958,0.008
04/06/2022,17:45:52,0.236,1.0,8.966,0.008
04/06/2022,17:47:53,0.223,1.0,8.973,0.007
04/06/2022,17:49:52,0.204,0.0,8.98,0.007
04/06/2022,17:51:52,0.185,0.0,8.987,0.007
04/06/2022,17:53:53,0.176,0.0,8.993,0.006
04/06/2022,17:55:52,0.169,0.0,8.999,0.006
04/06/2022,17:57:53,0.156,0.0,9.004,0.005
04/06/2022,18:00:02,0.145,0.0,9.009,0.005
04/06/2022,18:01:53,0.132,0.0,9.014,0.005
04/06/2022,18:03:52,0.122,0.0,9.018,0.004
04/06/2022,18:05:53,0.116,0.0,9.022,0.004
04/06/2022,18:07:53,0.111,0.0,9.026,0.004
04/06/2022,18:09:53,0.108,0.0,9.029,0.003
04/06/2022,18:11:52,0.104,0.0,9.033,0.004
04/06/2022,18:13:53,0.101,0.0,9.036,0.003
04/06/2022,18:15:52,0.097,0.0,9.04,0.004
04/06/2022,18:17:53,0.094,0.0,9.043,0.003
04/06/2022,18:19:53,0.091,0.0,9.046,0.003
04/06/2022,18:21:53,0.088,0.0,9.049,0.003
04/06/2022,18:23:53,0.085,0.0,9.052,0.003
04/06/2022,18:25:53,0.083,0.0,9.055,0.003
04/06/2022,18:27:53,0.080,0.0,9.057,0.002
04/06/2022,18:29:53,0.077,0.0,9.06,0.003
04/06/2022,18:31:53,0.074,0.0,9.062,0.002
04/06/2022,18:33:52,0.071,0.0,9.065,0.003
04/06/2022,18:36:07,0.070,0.0,9.067,0.002
04/06/2022,18:38:05,0.069,0.0,9.07,0.003
04/06/2022,18:39:53,0.068,0.0,9.072,0.002
04/06/2022,18:41:53,0.065,0.0,9.074,0.002
04/06/2022,18:43:54,0.063,0.0,9.076,0.002
04/06/2022,18:45:53,0.058,0.0,9.078,0.002
04/06/2022,18:47:54,0.056,0.0,9.08,0.002
04/06/2022,18:49:53,0.053,0.0,9.082,0.002
04/06/2022,18:51:53,0.050,0.0,9.084,0.002
04/06/2022,18:54:01,0.045,0.0,9.085,0.001
04/06/2022,18:55:53,0.042,0.0,9.087,0.002
04/06/2022,18:57:53,0.039,0.0,9.088,0.001
04/06/2022,18:59:53,0.036,0.0,9.089,0.001
04/06/2022,19:01:52,0.033,0.0,9.09,0.001
04/06/2022,19:03:53,0.031,0.0,9.091,0.001
04/06/2022,19:05:53,0.028,0.0,9.092,0.001
04/06/2022,19:07:53,0.027,0.0,9.093,0.001
04/06/2022,19:09:52,0.024,0.0,9.094,0.001
04/06/2022,19:11:53,0.024,0.0,9.095,0.001
04/06/2022,19:13:53,0.022,0.0,9.096,0.001
04/06/2022,19:16:01,0.021,0.0,9.097,0.001
04/06/2022,19:17:53,0.020,0.0,9.097,0.0
04/06/2022,19:19:52,0.017,0.0,9.098,0.001
04/06/2022,19:21:53,0.016,0.0,9.098,0.0
04/06/2022,19:23:53,0.015,0.0,9.099,0.001
04/06/2022,19:25:53,0.014,0.0,9.099,0.0
04/06/2022,19:27:52,0.012,0.0,9.1,0.001
04/06/2022,19:29:53,0.012,0.0,9.1,0.0
04/06/2022,19:31:53,0.011,0.0,9.101,0.001
04/06/2022,19:33:53,0.011,0.0,9.101,0.0
04/06/2022,19:35:53,0.009,0.0,9.101,0.0
04/06/2022,19:37:53,0.009,0.0,9.102,0.001
04/06/2022,19:39:53,0.008,0.0,9.102,0.0